When you browse on this site, cookies collect data to enhance your experience and personalize the content and advertising you see.
Visit our Privacy Policy to learn more. By continuing to use the site, you agree to this use of cookies and data.
  • In Hungary
  • List of Countries
  • For 7 days
  • Water Temperature
  • Satellite Maps
  • Weather Map
  • News
  • Weather Widgets
  • user-avatar
    Login

    Hourly Weather Slobidka

    Today, 13 December, Thursday

    Time Temperature Precipitation Wind Pressure Humidity
    00:00 -4°C° 0.1 mm 5 mps 733 mmHg 100%
    01:00 -4°C° 0.1 mm 6 mps 733 mmHg 100%
    02:00 -2°C° 0 mm 5 mps 733 mmHg 95%
    03:00 -4°C° 0.2 mm 6 mps 733 mmHg 100%
    04:00 -4°C° 0.3 mm 6 mps 733 mmHg 100%
    05:00 -4°C° 0.4 mm 6 mps 733 mmHg 100%
    06:00 -4°C° 0.4 mm 6 mps 733 mmHg 100%
    07:00 -4°C° 0.4 mm 6 mps 732 mmHg 100%
    08:00 -4°C° 0.3 mm 6 mps 733 mmHg 100%
    09:00 -4°C° 0.2 mm 5 mps 732 mmHg 100%
    10:00 -4°C° 0.1 mm 5 mps 733 mmHg 100%
    11:00 -4°C° 0.1 mm 5 mps 733 mmHg 100%
    12:00 -4°C° 0.2 mm 5 mps 733 mmHg 100%
    13:00 -4°C° 0.2 mm 5 mps 733 mmHg 100%
    14:00 -4°C° 0.3 mm 5 mps 733 mmHg 100%
    15:00 -4°C° 0.2 mm 5 mps 733 mmHg 100%
    16:00 -4°C° 0.3 mm 5 mps 733 mmHg 100%
    17:00 -4°C° 0.4 mm 5 mps 733 mmHg 100%
    18:00 -5°C° 0.2 mm 5 mps 733 mmHg 100%
    19:00 -5°C° 0 mm 5 mps 733 mmHg 100%
    20:00 -5°C° 0 mm 5 mps 734 mmHg 100%
    21:00 -4°C° 0 mm 4 mps 734 mmHg 100%
    22:00 -4°C° 0 mm 4 mps 734 mmHg 100%
    23:00 -5°C° 0 mm 4 mps 734 mmHg 100%

    Tomorrow, 14 December, Friday

    Time Temperature Precipitation Wind Pressure Humidity
    00:00 -5°C° 0.1 mm 4 mps 734 mmHg 100%
    01:00 -5°C° 0.1 mm 4 mps 734 mmHg 100%
    02:00 -5°C° 0.1 mm 4 mps 735 mmHg 100%
    03:00 -5°C° 0.1 mm 4 mps 735 mmHg 100%
    04:00 -5°C° 0.1 mm 4 mps 735 mmHg 100%
    05:00 -5°C° 0.1 mm 4 mps 735 mmHg 100%
    06:00 -5°C° 0 mm 4 mps 735 mmHg 100%
    07:00 -5°C° 0.1 mm 4 mps 736 mmHg 100%
    08:00 -6°C° 0 mm 3 mps 736 mmHg 100%
    09:00 -7°C° 0 mm 3 mps 736 mmHg 100%
    10:00 -6°C° 0 mm 3 mps 737 mmHg 100%
    11:00 -5°C° 0 mm 3 mps 737 mmHg 100%
    12:00 -5°C° 0 mm 3 mps 737 mmHg 100%
    13:00 -5°C° 0 mm 3 mps 737 mmHg 100%
    14:00 -5°C° 0 mm 3 mps 738 mmHg 100%
    15:00 -4°C° 0 mm 2 mps 738 mmHg 100%
    16:00 -6°C° 0 mm 2 mps 738 mmHg 100%
    17:00 -7°C° 0 mm 2 mps 738 mmHg 100%
    18:00 -9°C° 0 mm 3 mps 738 mmHg 100%
    19:00 -9°C° 0 mm 2 mps 738 mmHg 100%
    20:00 -10°C° 0 mm 2 mps 738 mmHg 100%
    21:00 -12°C° 0 mm 2 mps 738 mmHg 100%
    22:00 -13°C° 0 mm 2 mps 738 mmHg 100%
    23:00 -13°C° 0 mm 2 mps 739 mmHg 100%

    Day after tomorrow, 15 December, Saturday

    Time Temperature Precipitation Wind Pressure Humidity
    00:00 -14°C° 0 mm 2 mps 739 mmHg 100%
    01:00 -12°C° 0 mm 1 mps 739 mmHg 100%
    02:00 -12°C° 0 mm 1 mps 739 mmHg 100%
    03:00 -16°C° 0 mm 2 mps 738 mmHg 100%
    04:00 -16°C° 0 mm 2 mps 738 mmHg 100%
    05:00 -16°C° 0 mm 2 mps 738 mmHg 100%
    06:00 -16°C° 0 mm 2 mps 738 mmHg 100%
    07:00 -16°C° 0 mm 2 mps 739 mmHg 100%
    08:00 -16°C° 0 mm 2 mps 739 mmHg 100%
    09:00 -16°C° 0 mm 2 mps 739 mmHg 100%
    10:00 -15°C° 0 mm 2 mps 739 mmHg 100%
    11:00 -12°C° 0 mm 1 mps 739 mmHg 100%
    12:00 -13°C° 0 mm 2 mps 739 mmHg 100%
    13:00 -12°C° 0 mm 2 mps 739 mmHg 100%
    14:00 -12°C° 0 mm 3 mps 739 mmHg 100%
    15:00 -12°C° 0 mm 3 mps 738 mmHg 100%
    16:00 -12°C° 0.1 mm 3 mps 738 mmHg 100%
    17:00 -10°C° 0.4 mm 2 mps 738 mmHg 100%
    18:00 -12°C° 0.8 mm 3 mps 738 mmHg 100%
    19:00 -12°C° 0.7 mm 3 mps 738 mmHg 100%
    20:00 -10°C° 0.8 mm 2 mps 737 mmHg 100%
    21:00 -9°C° 1 mm 2 mps 737 mmHg 100%
    22:00 -10°C° 0.9 mm 3 mps 736 mmHg 100%
    23:00 -10°C° 0.9 mm 3 mps 736 mmHg 100%

    16 December, Sunday

    Time Temperature Precipitation Wind Pressure Humidity
    00:00 -9°C° 1 mm 3 mps 736 mmHg 100%
    01:00 -9°C° 0.9 mm 3 mps 735 mmHg 100%
    02:00 -10°C° 0.5 mm 3 mps 734 mmHg 100%
    03:00 -10°C° 0.2 mm 3 mps 734 mmHg 100%
    04:00 -10°C° 0.2 mm 3 mps 733 mmHg 100%
    05:00 -9°C° 0.4 mm 2 mps 732 mmHg 100%
    06:00 -8°C° 0.6 mm 1 mps 732 mmHg 100%
    07:00 -8°C° 0.7 mm 1 mps 732 mmHg 100%
    08:00 -8°C° 0.2 mm 1 mps 732 mmHg 100%
    09:00 -8°C° 0 mm 1 mps 732 mmHg 100%
    10:00 -8°C° 0 mm 0 mps 732 mmHg 100%
    11:00 -7°C° 0 mm 1 mps 732 mmHg 100%
    12:00 -6°C° 0 mm 1 mps 733 mmHg 100%
    13:00 -4°C° 0 mm 1 mps 733 mmHg 99%
    14:00 -3°C° 0 mm 1 mps 733 mmHg 99%
    15:00 -3°C° 0 mm 1 mps 733 mmHg 100%
    16:00 -5°C° 0 mm 2 mps 733 mmHg 100%
    17:00 -4°C° 0.4 mm 0 mps 733 mmHg 100%
    18:00 -4°C° 2 mm 0 mps 734 mmHg 100%
    19:00 -3°C° 0.9 mm 1 mps 734 mmHg 100%
    20:00 -3°C° 1 mm 1 mps 734 mmHg 100%
    21:00 -3°C° 1.2 mm 1 mps 735 mmHg 100%
    22:00 -5°C° 0.5 mm 2 mps 735 mmHg 100%
    23:00 -3°C° 1.3 mm 1 mps 735 mmHg 100%

    17 December, Monday

    Time Temperature Precipitation Wind Pressure Humidity
    00:00 -5°C° 2.1 mm 2 mps 735 mmHg 100%
    01:00 -3°C° 2.4 mm 1 mps 735 mmHg 100%
    02:00 -5°C° 1.7 mm 2 mps 735 mmHg 100%

    18 December, Tuesday

    Time Temperature Precipitation Wind Pressure Humidity
    Show more